sat.trackr.live / text

‹ back to catalog

STARLINK-35462

NORAD 65877 · 2025-223Z

PAYLOAD ACTIVE UNKNOWN

§ Identity

Operator
Country
US
Launch date
2025-10-03
Launch site
AFWTR
Launch vehicle
Mass (kg)
RCS (m²)

Purposes: comms

External: N2YO · Heavens-Above · Gunter

§ Orbital elements

Epoch: 2026-05-25T03:16:30.025632Z

Period
94.11 min
Inclination
53.1614°
Eccentricity
0.0001254
Mean motion
15.30205533 rev/d
Perigee alt
474.3 km
Apogee alt
476.1 km
Semi-major
6,853.3 km
B*
5.1794e-4
RAAN
298.8216°
Arg perigee
90.1351°
Mean anomaly
269.9793°
Rev number
3,591

§ Raw data

STARLINK-354621 65877U 25223Z   26145.13645863  .00015014  00000+0  51794-3 0  99902 65877  53.1614 298.8216 0001254  90.1351 269.9793 15.30205533 35912

JSON: /api/v1/satellites/65877 · /tle

For live sub-satellite position, see the globe view (requires WebGL).

§ Visibility from observer

Set your observer location to see the next 7 days of passes ≥ 10°. The values pass through the URL so the page stays shareable.

No JS? Fill the form by hand. The geolocation button needs JavaScript.